• In Uzbekistan
  • List of Countries
  • For 7 days
  • Water Temperature
  • Satellite Maps
  • Weather Map
  • Weather Widgets
  • user-avatar
    Login

    Hourly Weather Natal

    Today, 25 April, Thursday

    Time Temperature Precipitation Wind Pressure Humidity
    00:00 +29°C° 0.1 mm 5 mps 759 mmHg 81%
    01:00 +29°C° 0.1 mm 5 mps 759 mmHg 81%
    02:00 +29°C° 1.2 mm 5 mps 758 mmHg 83%
    03:00 +28°C° 1.2 mm 5 mps 758 mmHg 84%
    04:00 +28°C° 1.2 mm 4 mps 758 mmHg 86%
    05:00 +28°C° 3.2 mm 4 mps 758 mmHg 87%
    06:00 +27°C° 3.2 mm 4 mps 758 mmHg 88%
    07:00 +27°C° 3.2 mm 4 mps 758 mmHg 90%
    08:00 +28°C° 3.9 mm 4 mps 759 mmHg 89%
    09:00 +28°C° 3.9 mm 4 mps 759 mmHg 88%
    10:00 +28°C° 3.9 mm 4 mps 759 mmHg 88%
    11:00 +29°C° 1.6 mm 4 mps 759 mmHg 86%
    12:00 +29°C° 1.6 mm 4 mps 759 mmHg 84%
    13:00 +30°C° 1.6 mm 3 mps 759 mmHg 82%
    14:00 +30°C° 2.3 mm 4 mps 758 mmHg 80%
    15:00 +30°C° 2.3 mm 4 mps 758 mmHg 79%
    16:00 +30°C° 2.3 mm 4 mps 758 mmHg 78%
    17:00 +30°C° 3.4 mm 4 mps 758 mmHg 80%
    18:00 +29°C° 3.4 mm 4 mps 758 mmHg 83%
    19:00 +28°C° 3.4 mm 4 mps 758 mmHg 85%
    20:00 +28°C° 3.4 mm 4 mps 758 mmHg 85%
    21:00 +28°C° 3.4 mm 4 mps 759 mmHg 85%
    22:00 +28°C° 3.4 mm 3 mps 759 mmHg 85%
    23:00 +28°C° 2.4 mm 3 mps 759 mmHg 86%

    Tomorrow, 26 April, Friday

    Time Temperature Precipitation Wind Pressure Humidity
    00:00 +28°C° 2.4 mm 3 mps 759 mmHg 86%
    01:00 +28°C° 2.4 mm 3 mps 759 mmHg 87%
    02:00 +27°C° 0.9 mm 3 mps 759 mmHg 87%
    03:00 +27°C° 0.9 mm 3 mps 758 mmHg 88%
    04:00 +27°C° 0.9 mm 2 mps 758 mmHg 89%
    05:00 +27°C° 0.3 mm 2 mps 758 mmHg 90%
    06:00 +27°C° 0.3 mm 2 mps 758 mmHg 90%
    07:00 +27°C° 0.3 mm 2 mps 758 mmHg 91%
    08:00 +28°C° 0.5 mm 2 mps 759 mmHg 85%
    09:00 +30°C° 0.5 mm 2 mps 759 mmHg 80%
    10:00 +31°C° 0.5 mm 3 mps 760 mmHg 74%
    11:00 +33°C° 0.5 mm 3 mps 759 mmHg 71%
    12:00 +33°C° 0.5 mm 3 mps 759 mmHg 68%
    13:00 +34°C° 0.5 mm 3 mps 759 mmHg 65%
    14:00 +34°C° 0.1 mm 4 mps 758 mmHg 67%
    15:00 +33°C° 0.1 mm 4 mps 757 mmHg 68%
    16:00 +33°C° 0.1 mm 4 mps 757 mmHg 70%
    17:00 +32°C° 0.5 mm 4 mps 757 mmHg 75%
    18:00 +30°C° 0.5 mm 4 mps 757 mmHg 80%
    19:00 +29°C° 0.5 mm 4 mps 758 mmHg 85%
    20:00 +28°C° 1.6 mm 4 mps 758 mmHg 86%
    21:00 +28°C° 1.6 mm 3 mps 759 mmHg 87%
    22:00 +28°C° 1.6 mm 3 mps 759 mmHg 87%
    23:00 +28°C° 1.5 mm 3 mps 759 mmHg 88%

    Day after tomorrow, 27 April, Saturday

    Time Temperature Precipitation Wind Pressure Humidity
    00:00 +28°C° 1.5 mm 3 mps 759 mmHg 89%
    01:00 +27°C° 1.5 mm 3 mps 759 mmHg 89%
    02:00 +27°C° 1.1 mm 3 mps 758 mmHg 90%
    03:00 +27°C° 1.1 mm 3 mps 758 mmHg 90%
    04:00 +27°C° 1.1 mm 3 mps 757 mmHg 90%
    05:00 +27°C° 0.1 mm 4 mps 758 mmHg 90%
    06:00 +27°C° 0.1 mm 4 mps 758 mmHg 90%
    07:00 +27°C° 0.1 mm 4 mps 758 mmHg 90%
    08:00 +29°C° 0.1 mm 5 mps 759 mmHg 84%
    09:00 +30°C° 0.1 mm 5 mps 759 mmHg 79%
    10:00 +32°C° 0.1 mm 5 mps 760 mmHg 74%
    11:00 +33°C° 0.1 mm 5 mps 759 mmHg 70%
    12:00 +34°C° 0.1 mm 6 mps 759 mmHg 67%
    13:00 +34°C° 0.1 mm 6 mps 758 mmHg 63%
    14:00 +34°C° 0 mm 6 mps 758 mmHg 65%
    15:00 +33°C° 0 mm 6 mps 757 mmHg 67%
    16:00 +33°C° 0 mm 6 mps 756 mmHg 69%
    17:00 +32°C° 0 mm 6 mps 757 mmHg 73%
    18:00 +30°C° 0 mm 5 mps 757 mmHg 76%
    19:00 +29°C° 0 mm 5 mps 757 mmHg 80%
    20:00 +29°C° 0 mm 5 mps 758 mmHg 81%
    21:00 +29°C° 0 mm 4 mps 758 mmHg 82%
    22:00 +28°C° 0 mm 4 mps 759 mmHg 82%
    23:00 +28°C° 0 mm 4 mps 758 mmHg 83%

    28 April, Sunday

    Time Temperature Precipitation Wind Pressure Humidity
    00:00 +28°C° 0 mm 4 mps 758 mmHg 83%
    01:00 +28°C° 0 mm 3 mps 758 mmHg 84%
    02:00 +28°C° 0 mm 3 mps 757 mmHg 84%
    03:00 +28°C° 0 mm 3 mps 757 mmHg 85%
    04:00 +27°C° 0 mm 3 mps 756 mmHg 86%
    05:00 +27°C° 0.9 mm 3 mps 757 mmHg 86%
    06:00 +28°C° 0.9 mm 3 mps 757 mmHg 86%
    07:00 +28°C° 0.9 mm 3 mps 758 mmHg 86%
    08:00 +28°C° 2 mm 3 mps 758 mmHg 83%
    09:00 +29°C° 2 mm 3 mps 759 mmHg 80%
    10:00 +30°C° 2 mm 3 mps 759 mmHg 77%
    11:00 +30°C° 2.5 mm 3 mps 759 mmHg 76%
    12:00 +31°C° 2.5 mm 3 mps 758 mmHg 75%
    13:00 +32°C° 2.5 mm 4 mps 758 mmHg 74%
    14:00 +30°C° 2.2 mm 3 mps 757 mmHg 76%
    15:00 +30°C° 2.2 mm 3 mps 757 mmHg 77%
    16:00 +30°C° 2.2 mm 3 mps 756 mmHg 79%
    17:00 +29°C° 0.6 mm 3 mps 757 mmHg 81%
    18:00 +29°C° 0.6 mm 3 mps 757 mmHg 82%
    19:00 +28°C° 0.6 mm 3 mps 757 mmHg 84%
    20:00 +28°C° 0.7 mm 3 mps 758 mmHg 84%
    21:00 +28°C° 0.7 mm 2 mps 758 mmHg 85%
    22:00 +28°C° 0.7 mm 2 mps 758 mmHg 85%
    23:00 +28°C° 0.2 mm 2 mps 758 mmHg 86%

    29 April, Monday

    Time Temperature Precipitation Wind Pressure Humidity
    00:00 +28°C° 0.2 mm 2 mps 757 mmHg 86%
    01:00 +28°C° 0.2 mm 1 mps 757 mmHg 86%
    02:00 +27°C° 1 mm 2 mps 757 mmHg 87%
    03:00 +27°C° 1 mm 2 mps 757 mmHg 88%
    04:00 +27°C° 1 mm 2 mps 756 mmHg 89%
    05:00 +27°C° 0.4 mm 2 mps 757 mmHg 89%
    06:00 +27°C° 0.4 mm 2 mps 757 mmHg 89%
    07:00 +27°C° 0.4 mm 3 mps 758 mmHg 89%
    08:00 +28°C° 0.3 mm 3 mps 758 mmHg 84%
    09:00 +29°C° 0.3 mm 3 mps 758 mmHg 79%
    10:00 +31°C° 0.3 mm 3 mps 759 mmHg 74%
    11:00 +31°C° 1 mm 3 mps 758 mmHg 74%
    12:00 +31°C° 1 mm 3 mps 758 mmHg 73%
    13:00 +31°C° 1 mm 3 mps 757 mmHg 73%
    14:00 +31°C° 0.8 mm 3 mps 757 mmHg 72%
    15:00 +32°C° 0.8 mm 4 mps 757 mmHg 72%
    16:00 +32°C° 0.8 mm 5 mps 756 mmHg 72%
    17:00 +32°C° 0 mm 4 mps 757 mmHg 75%
    18:00 +30°C° 0 mm 4 mps 757 mmHg 79%
    19:00 +29°C° 0 mm 4 mps 758 mmHg 82%
    20:00 +29°C° 0.3 mm 4 mps 758 mmHg 83%
    21:00 +29°C° 0.3 mm 4 mps 759 mmHg 83%
    22:00 +29°C° 0.3 mm 4 mps 759 mmHg 84%
    23:00 +28°C° 0.1 mm 3 mps 759 mmHg 85%

    30 April, Tuesday

    Time Temperature Precipitation Wind Pressure Humidity
    00:00 +28°C° 0.1 mm 3 mps 758 mmHg 86%
    01:00 +28°C° 0.1 mm 3 mps 758 mmHg 87%
    02:00 +28°C° 0.1 mm 3 mps 758 mmHg 87%
    03:00 +28°C° 0.1 mm 2 mps 758 mmHg 88%
    04:00 +28°C° 0.1 mm 2 mps 757 mmHg 89%
    05:00 +28°C° 0.3 mm 2 mps 758 mmHg 89%
    06:00 +27°C° 0.3 mm 2 mps 758 mmHg 90%
    07:00 +27°C° 0.3 mm 2 mps 759 mmHg 90%
    08:00 +29°C° 0.7 mm 3 mps 759 mmHg 86%
    09:00 +30°C° 0.7 mm 3 mps 759 mmHg 82%
    10:00 +31°C° 0.7 mm 3 mps 759 mmHg 78%
    11:00 +31°C° 0.5 mm 3 mps 759 mmHg 76%
    12:00 +33°C° 0.5 mm 3 mps 758 mmHg 74%
    13:00 +33°C° 0.5 mm 4 mps 758 mmHg 72%
    14:00 +33°C° 0.4 mm 4 mps 758 mmHg 73%
    15:00 +33°C° 0.4 mm 4 mps 757 mmHg 74%
    16:00 +32°C° 0.4 mm 4 mps 757 mmHg 75%
    17:00 +30°C° 0.2 mm 4 mps 757 mmHg 78%
    18:00 +30°C° 0.2 mm 4 mps 757 mmHg 82%
    19:00 +29°C° 0.2 mm 4 mps 758 mmHg 85%
    20:00 +29°C° 0.3 mm 4 mps 758 mmHg 86%
    21:00 +28°C° 0.3 mm 4 mps 758 mmHg 87%
    22:00 +28°C° 0.3 mm 3 mps 759 mmHg 88%
    23:00 +28°C° 0.4 mm 3 mps 759 mmHg 88%
    Show more